Theta_e
314 314 314 313 312 312 312 312 313 312 312 311 311 312 313 312 312 311 311 312 312 313 313 314 315 316 309 301 304 314 330 327 320 314 306 302 294 291 286 290 293 291 294 297 298 298 298
314 314 314 313 312 312 313 313 313 313 313 313 313 313 313 312 312 311 311 311 311 312 313 314 315 317 304 292 310 314 315 314 312 306 302 300 295 297 291 290 289 293 293 294 296 296 297
314 314 314 313 313 313 312 312 312 312 313 313 313 313 313 312 311 311 312 311 311 312 313 314 316 314 302 293 308 308 314 304 305 306 300 301 301 296 294 291 293 293 288 292 294 296 295
313 313 313 313 313 312 312 311 312 312 313 312 312 313 313 312 312 311 312 312 312 313 314 314 317 308 296 307 310 306 304 303 303 304 302 302 300 296 292 293 292 288 285 281 289 293 295
313 313 313 312 312 312 311 311 311 312 312 312 313 313 313 311 312 312 312 312 313 314 315 315 306 301 299 314 303 305 301 299 301 303 303 307 298 293 293 287 284 285 280 283 287 293 293
313 313 312 312 311 312 311 312 313 312 312 312 314 313 312 311 311 312 311 311 311 311 313 314 310 299 302 302 303 303 301 302 300 300 299 298 292 288 286 284 279 283 282 285 285 290 292
312 312 312 312 311 311 312 312 312 311 312 312 313 313 311 311 312 311 307 300 296 295 302 297 303 302 306 310 305 300 303 302 301 295 288 291 286 283 286 288 289 288 286 285 289 292 290
311 311 311 311 311 312 312 313 312 311 311 312 312 312 311 311 311 311 302 300 300 299 293 301 301 304 307 307 299 299 304 296 294 288 290 287 283 290 291 291 290 288 285 285 289 294 292
310 311 311 311 312 312 312 312 311 311 310 310 311 311 311 310 310 304 300 302 306 300 291 297 301 300 300 302 298 296 300 296 291 287 287 284 288 293 290 289 289 287 285 286 287 291 292
310 311 310 311 312 312 312 312 310 310 311 310 309 309 309 309 303 299 301 306 303 300 287 294 295 299 299 297 294 301 302 297 291 288 288 286 290 290 288 289 290 284 291 291 289 286 280
310 310 311 311 311 311 311 311 310 310 310 309 308 309 309 308 298 299 304 304 301 301 278 297 294 300 296 293 295 298 302 296 290 290 288 286 287 287 287 289 293 288 292 289 289 286 283
310 310 311 311 311 311 310 309 309 309 309 309 309 308 308 304 300 303 305 301 302 287 280 291 296 294 292 294 295 297 297 297 296 289 289 288 292 290 290 294 293 293 288 287 285 281 276
310 311 311 311 310 310 309 308 308 308 308 308 307 308 305 305 299 302 302 299 286 281 294 289 290 292 291 292 293 294 292 289 285 281 281 287 287 290 295 289 290 286 281 274 274 274 275
310 311 311 311 310 309 308 307 306 307 307 307 306 306 305 305 301 303 298 292 282 289 289 294 292 291 289 292 291 292 290 286 292 288 282 280 279 288 293 288 285 284 281 274 271 274 276
310 311 310 310 309 308 307 306 306 306 306 305 304 299 302 305 307 299 294 283 284 288 292 290 291 288 288 291 290 289 287 288 290 289 282 279 282 292 293 292 289 284 279 283 278 279 274
310 310 309 310 308 306 307 306 306 306 305 305 296 299 301 306 302 299 290 288 290 296 295 292 286 289 284 286 286 286 286 293 291 293 290 286 280 289 291 292 291 287 288 279 275 269 271
310 310 310 309 307 307 306 306 306 305 304 303 298 297 304 300 302 295 284 288 293 297 297 291 288 287 287 286 286 285 287 291 294 292 291 287 284 284 288 285 283 283 281 283 280 282 276
310 310 310 308 306 306 306 305 305 305 303 299 294 291 303 301 291 287 286 291 296 295 298 293 292 291 288 288 286 287 287 290 295 293 287 289 284 280 284 290 291 288 284 283 275 277 279
310 310 309 308 306 305 305 305 305 304 303 298 291 293 303 298 281 283 288 292 294 294 293 293 290 291 291 287 284 289 289 294 294 291 288 289 283 279 280 283 287 286 287 286 284 284 279
309 309 308 306 305 305 305 304 304 304 303 297 292 286 290 290 289 285 285 288 290 297 294 293 291 291 288 285 287 286 287 293 293 292 298 295 286 284 279 281 283 284 287 287 284 281 280
309 309 308 306 305 304 304 304 304 303 303 295 289 286 288 282 284 285 286 288 289 289 292 291 288 289 286 282 284 284 288 288 291 295 291 288 281 284 286 288 288 287 287 288 286 286 281
309 309 308 306 304 303 303 303 304 303 302 295 289 287 288 285 288 286 287 287 287 289 288 287 285 288 287 283 285 284 285 285 285 289 287 287 283 288 284 288 288 286 288 288 289 288 287
309 309 307 305 304 303 303 303 303 303 299 291 293 293 290 286 284 283 283 287 287 288 290 291 288 286 285 287 290 291 291 290 289 287 285 284 282 282 280 286 285 281 286 287 287 289 288
309 309 307 305 303 302 302 303 303 303 299 291 292 290 288 284 285 285 288 289 287 288 286 290 290 285 290 294 292 291 290 290 290 290 291 285 285 287 282 281 274 284 293 294 290 291 291
308 309 307 304 303 302 302 302 302 302 303 293 292 290 288 285 287 286 288 288 287 288 287 288 290 292 292 289 285 283 283 284 288 289 289 289 288 284 280 278 282 285 291 291 287 287 292
308 308 306 304 303 302 302 302 302 302 303 292 291 292 290 287 284 290 287 287 283 281 284 288 291 292 289 286 284 282 279 283 283 288 292 289 291 286 282 278 271 282 294 296 292 283 293
307 308 306 304 302 302 302 302 302 302 302 295 292 293 290 287 289 288 284 284 285 282 281 284 289 287 289 283 278 280 281 288 280 281 285 287 286 282 282 280 282 290 295 297 283 283 294
307 307 305 304 302 302 302 301 302 302 301 297 293 294 291 288 289 290 291 286 285 284 280 284 285 288 283 282 283 284 285 287 284 286 284 280 283 281 284 281 278 297 294 286 290 292 297
307 307 305 303 302 302 301 301 302 302 302 302 292 294 295 291 288 291 292 293 292 291 286 285 283 285 288 279 286 284 281 283 283 281 289 279 284 284 285 282 291 295 295 297 297 298 298
Wind_Speed
15 16 17 18 18 19 19 19 17 18 18 19 19 20 20 21 22 21 20 19 18 16 15 14 14 12 4 2 8 5 9 8 4 3 3 0 3 1 1 3 5 3 3 6 7 6 7
16 16 16 17 18 18 17 18 19 19 19 19 20 21 22 22 22 21 20 19 18 16 15 14 12 9 2 2 4 4 6 4 5 4 2 4 4 4 3 1 1 3 3 6 4 6 5
17 17 17 17 17 17 18 19 20 21 21 20 21 20 22 23 22 22 21 19 17 15 13 12 9 3 1 10 3 7 5 3 4 6 3 4 5 2 3 5 1 2 5 6 5 4 6
17 17 17 17 17 19 19 21 21 23 22 22 22 21 22 23 23 22 21 20 18 15 12 10 5 1 7 5 2 4 3 6 7 7 2 4 2 3 3 1 7 5 5 4 5 5 6
18 17 18 18 18 18 21 22 21 22 23 23 22 21 22 24 23 23 22 22 18 13 8 4 2 1 8 9 1 6 7 4 4 4 3 2 4 2 4 4 5 6 1 1 6 6 5
17 17 18 19 19 18 19 20 20 22 23 24 22 21 22 22 24 22 23 19 3 1 2 5 4 2 4 3 4 3 3 3 4 3 5 5 5 3 4 5 3 4 2 3 6 6 7
18 18 19 19 21 21 19 20 21 23 23 24 23 23 23 23 22 19 12 3 6 4 2 5 3 3 5 7 5 2 3 1 2 6 3 3 5 2 5 8 6 2 3 5 6 7 7
19 19 19 20 21 20 20 20 22 23 24 24 25 24 24 23 22 19 2 3 3 5 7 7 7 7 9 1 4 7 2 2 2 1 2 6 2 6 4 4 4 3 2 4 6 6 10
19 19 19 20 20 19 21 22 23 24 24 24 24 24 24 23 24 1 1 3 7 2 2 8 4 4 6 9 6 6 6 3 2 1 1 3 7 6 3 4 5 2 3 4 7 7 8
19 19 21 21 21 21 23 23 25 25 24 24 24 24 23 24 3 4 3 3 7 2 4 3 2 5 3 3 4 7 6 6 2 7 3 4 4 1 6 4 3 3 4 5 9 6 3
19 21 20 20 21 22 22 23 25 24 25 25 25 24 21 11 2 1 3 7 5 5 5 3 1 3 2 4 2 3 4 3 9 7 6 10 4 5 3 4 5 8 6 6 6 6 3
19 20 20 21 22 23 23 24 25 25 25 26 26 23 17 1 0 6 7 6 4 6 3 3 3 4 3 4 6 4 4 3 1 2 3 7 4 4 7 5 6 3 4 4 4 2 2
18 19 18 21 22 23 23 25 26 27 28 28 27 23 5 1 3 3 5 4 5 5 5 5 4 6 3 4 6 4 3 6 0 2 3 4 2 1 2 1 5 6 6 5 5 3 5
18 18 19 20 22 24 24 25 26 28 29 30 26 14 2 4 3 6 4 5 6 2 2 0 3 5 3 7 4 6 3 3 5 3 1 1 6 0 2 3 5 5 7 6 6 5 10
18 17 19 21 23 24 24 25 26 28 30 30 17 4 1 4 2 3 6 6 4 2 3 2 6 2 3 5 3 5 3 3 2 2 3 1 5 3 8 2 4 4 4 4 2 2 1
16 17 21 19 22 25 24 25 27 29 31 26 3 4 4 4 4 5 6 1 2 3 6 2 1 0 2 2 2 5 3 3 5 4 4 3 6 8 4 1 6 6 3 3 3 3 6
17 17 18 19 21 23 24 25 27 28 31 20 4 3 4 5 4 6 4 4 4 6 7 3 5 4 4 2 2 3 6 1 5 4 3 2 4 5 3 4 6 3 2 1 3 4 4
16 15 17 20 20 21 23 24 25 26 28 9 3 2 4 3 5 1 1 3 5 4 6 5 4 6 5 3 4 4 6 5 2 2 2 3 3 4 9 14 7 6 6 4 4 5 5
14 15 16 18 20 20 21 23 24 25 21 3 3 3 4 5 3 3 6 5 3 2 3 5 4 4 4 3 3 5 3 3 5 2 1 3 1 4 6 3 4 2 4 5 2 2 8
15 14 15 18 20 20 21 23 25 25 24 3 3 5 6 6 1 3 4 5 4 4 2 1 3 3 4 3 4 5 3 4 3 2 10 5 6 8 10 10 4 12 15 11 7 6 8
13 13 14 16 18 20 21 22 24 26 26 3 4 1 2 5 3 3 2 3 4 3 4 4 2 2 3 4 4 7 6 5 8 9 6 9 7 7 9 14 17 20 21 21 19 18 14
12 12 13 15 15 16 18 21 23 26 22 5 2 3 4 4 4 4 2 2 3 2 3 5 2 7 6 7 9 13 10 5 8 6 3 3 4 3 12 18 20 20 18 19 20 20 19
11 9 11 13 13 14 16 17 19 20 12 4 3 2 3 3 3 1 4 1 4 7 6 5 3 4 6 11 7 12 12 12 10 7 6 4 2 5 10 3 10 11 8 6 5 9 9
11 10 10 12 12 12 13 15 15 15 8 1 2 2 1 4 2 4 4 5 11 4 7 11 6 4 7 6 9 10 13 17 16 19 12 8 6 4 4 3 5 6 4 4 7 8 9
11 10 9 10 12 12 12 12 12 12 12 2 2 1 1 4 3 12 9 6 7 7 5 6 9 5 5 5 4 7 5 4 4 5 11 14 9 3 3 4 7 9 5 2 2 15 4
11 10 8 8 10 11 11 11 11 10 10 2 1 2 0 3 5 6 3 4 5 3 6 5 8 9 2 2 2 4 4 3 4 3 4 8 9 4 3 4 6 7 3 3 3 9 5
12 10 8 9 8 11 11 10 11 10 10 2 3 2 0 4 5 4 5 3 2 1 4 5 5 6 1 1 2 4 4 4 3 2 4 3 3 9 8 6 8 6 4 5 2 9 3
11 10 9 9 8 10 10 10 11 10 9 3 4 3 3 4 10 8 5 5 3 3 4 4 6 1 3 2 2 2 3 4 4 3 3 6 4 4 3 6 7 4 4 6 9 5 5
10 10 10 9 8 10 11 9 10 10 9 8 2 2 2 4 9 7 15 18 16 16 4 3 5 3 4 2 2 3 3 4 3 4 4 3 5 2 6 6 6 5 13 12 6 16 15
Wind_Direction
10 7 7 5 2 360 358 356 352 349 346 341 338 336 333 330 329 325 321 318 315 314 311 310 311 322 339 316 253 252 169 171 164 175 236 202 61 42 193 299 335 217 340 349 333 311 284
6 5 4 2 359 356 351 349 347 345 340 336 334 333 332 330 328 325 321 316 310 307 302 301 306 322 307 287 255 298 135 154 209 187 243 178 179 228 133 276 157 304 277 290 292 264 243
2 0 358 357 354 351 349 345 342 339 338 336 335 331 331 332 329 325 320 313 305 299 293 292 300 279 316 236 11 11 156 230 187 194 238 209 177 89 148 323 220 285 333 338 219 233 252
359 357 355 352 350 349 346 345 341 339 339 338 336 330 331 333 330 327 320 313 302 291 280 278 279 212 250 238 265 293 161 287 244 202 214 237 122 132 150 258 1 8 45 21 284 315 249
359 355 351 349 347 346 344 342 338 336 336 335 331 329 331 335 331 325 318 309 299 279 256 232 167 183 274 311 241 234 175 237 307 300 304 251 85 137 35 74 7 11 68 279 303 288 271
356 354 350 348 347 345 343 340 334 336 335 333 328 329 331 334 331 323 323 313 301 55 157 172 245 335 281 322 262 257 182 225 248 321 2 48 51 68 33 63 275 283 333 267 268 285 300
354 352 353 351 349 346 340 337 338 337 334 333 330 329 333 332 328 328 340 23 20 3 191 222 208 252 277 318 298 251 276 293 87 49 18 0 70 216 234 204 236 260 272 262 275 288 324
354 354 352 348 344 339 340 338 338 337 334 331 330 328 330 328 326 326 117 59 235 231 312 243 237 252 264 89 309 289 90 176 95 221 17 15 297 239 272 274 188 174 186 277 270 343 311
357 354 351 346 340 338 343 338 340 337 336 332 328 327 329 326 321 22 296 255 300 311 57 299 205 195 227 147 226 258 153 182 197 223 128 155 252 324 324 315 356 357 262 258 275 294 253
354 353 349 344 342 340 340 339 341 339 333 330 329 328 329 326 20 323 287 330 322 132 63 275 262 272 166 160 261 215 197 161 223 208 208 227 264 301 311 268 116 312 253 284 306 338 296
355 351 343 345 342 341 340 337 336 336 333 330 329 329 328 324 243 19 284 334 299 58 72 178 163 246 73 177 304 280 168 111 213 205 120 238 209 281 262 226 176 235 248 264 269 268 301
354 351 344 342 344 341 339 338 335 334 330 328 329 328 331 97 132 245 316 319 62 49 44 20 51 345 13 247 253 252 179 79 116 203 247 252 237 190 209 221 205 289 315 317 330 75 260
349 348 346 340 343 342 342 341 338 335 332 330 330 327 313 206 244 339 329 47 44 87 326 13 325 326 4 305 357 343 137 38 321 327 318 327 248 345 103 325 352 55 51 324 330 335 228
349 345 344 344 342 344 345 345 341 336 334 333 327 326 186 226 323 359 37 54 71 61 2 335 296 320 110 7 1 359 48 137 29 63 47 274 318 182 108 181 219 241 167 166 259 254 279
345 342 346 348 347 346 347 346 345 341 337 336 326 339 341 266 200 83 65 54 178 319 255 275 326 37 350 334 4 8 1 137 149 95 141 270 271 299 298 304 126 262 219 207 205 281 7
340 344 351 349 349 347 348 348 348 346 341 341 15 350 289 311 97 64 75 250 262 330 293 173 130 251 285 271 356 12 281 173 158 181 152 218 284 241 260 23 272 174 191 277 3 287 265
336 343 345 351 350 346 349 352 351 350 344 337 21 33 268 343 61 47 110 244 290 323 330 207 212 246 260 258 216 243 248 257 178 184 177 163 179 284 22 217 206 309 304 181 158 179 243
335 342 348 352 350 349 350 353 352 354 349 31 353 16 317 30 49 21 108 291 292 293 341 296 198 202 196 235 258 238 233 206 125 134 197 200 159 272 246 273 235 224 235 178 137 264 241
330 343 351 352 348 350 351 351 354 355 1 331 7 281 322 66 90 328 316 297 255 299 356 13 316 346 0 234 270 227 242 150 110 89 175 186 249 304 313 358 1 122 188 197 187 289 229
328 342 352 354 351 352 353 353 352 352 354 116 44 355 329 32 25 89 353 277 299 318 178 311 274 75 13 310 251 278 264 284 313 271 280 265 191 217 247 260 229 281 269 250 213 239 253
325 337 348 351 354 353 355 355 354 352 350 105 33 320 178 305 333 345 248 273 289 338 341 335 301 166 198 267 298 256 262 297 289 272 283 161 217 206 243 264 273 271 273 271 255 246 246
322 332 346 346 353 358 356 358 357 356 348 73 63 32 355 287 298 313 247 221 272 346 259 268 259 317 257 222 212 269 274 236 238 288 266 176 261 254 279 273 266 278 273 262 255 256 260
310 321 339 337 348 357 357 360 4 7 14 41 335 358 104 268 299 340 244 153 305 329 267 217 216 279 261 258 249 263 243 242 236 209 203 178 189 299 276 309 315 278 245 248 241 231 234
305 312 333 332 338 350 356 358 3 10 54 112 311 349 51 277 267 225 285 307 288 259 256 279 279 242 248 303 295 269 253 248 239 238 213 205 196 209 279 27 242 244 237 257 263 248 242
297 302 321 329 330 337 348 351 359 5 4 92 257 67 226 268 251 292 257 245 306 288 266 260 272 233 303 294 286 316 320 322 232 214 212 207 200 236 226 213 287 289 316 202 353 294 219
287 289 306 318 324 327 335 345 345 356 353 75 279 187 156 294 244 247 294 232 271 267 315 281 323 307 290 246 267 262 286 295 294 125 64 164 206 211 172 243 237 234 247 49 65 278 239
277 279 290 302 316 316 325 336 335 346 347 46 274 191 319 266 264 185 210 236 257 238 257 284 317 321 24 280 233 227 247 267 290 260 168 150 183 232 250 264 278 252 148 81 240 254 309
269 268 277 288 303 305 312 325 327 329 338 356 270 203 149 267 282 238 246 236 284 192 207 287 333 4 344 348 305 291 276 357 306 297 195 180 198 210 211 230 265 144 79 206 253 265 269
261 256 269 278 291 295 303 313 318 320 324 328 264 268 202 229 261 289 260 247 231 233 184 239 221 322 273 47 9 325 329 306 296 290 331 306 193 241 213 230 239 227 264 276 249 274 278